User: anonymous   Login
Location: Stillwell
(40.4602°N, 82.0928°W)
Time: 19:04:25
(UTC-04:00)
Language:

Cosmos 2333 Rocket - Orbit

View from above orbital plane
View from above orbital plane
View from above satellite
View from above satellite

Ground track
Ground track

The orbit data is extracted from the following two-line orbital elements,

1 24298U 96051B   17267.50873079 -.00000131  00000-0 -44772-4 0  9993
2 24298  70.8486 212.7982 0013689  27.2563 332.9272 14.12490588 85848
Epoch (UTC): 24 September 2017 12:12:34
Eccentricity: 0.0013689
inclination: 70.8486°
perigee height: 841 km
apogee height: 861 km
right ascension of ascending node: 212.7982°
argument of perigee: 27.2563°
revolutions per day: 14.12490588
mean anomaly at epoch: 332.9272°
orbit number at epoch: 8584

The dashed part of the orbit path shows where the satellite is in the earth's shadow,  

DLR